Epoch 2006 July 4.0 TT = JDT 2453920.5
T 2006 June 29.06564 TT MPC
q 6.3983877 (2000.0) P Q
n 0.04384170 Peri. 229.82413 +0.85595987 -0.51674280
a 7.9654649 Node 161.26907 +0.48947194 +0.79888436
e 0.1967339 Incl. 3.14085 +0.16658306 +0.30783219
P 22.48